FW4608 Weather Reports


Display with metric or nautical units.
time (UTC)temp
F
wind
direction
speed
MPH
gust
MPH
rain 1hr
in
rain 24hr
in
rain mn
in
humidity
%
barometer
mb
20260502195520 68 312 1.0 9.0 0.00 0.23 0.23 92 1009.3
20260502195015 68 227 2.0 9.0 0.00 0.23 0.23 92 1009.4
20260502194516 68 236 0.0 5.0 0.00 0.23 0.23 92 1009.4
20260502194113 68 224 1.0 5.0 0.00 0.23 0.23 92 1009.5
20260502193519 68 271 1.0 3.0 0.00 0.23 0.23 92 1009.4
20260502193010 69 302 1.0 6.0 0.00 0.23 0.23 92 1009.3
20260502192510 68 248 1.0 6.0 0.00 0.23 0.23 92 1009.2
20260502192012 68 300 1.0 7.0 0.00 0.23 0.23 92 1009.1
20260502191508 69 336 0.0 10.0 0.00 0.23 0.23 92 1009.2
20260502191010 69 238 4.0 10.0 0.00 0.23 0.23 92 1009.3
20260502190509 69 250 0.0 5.0 0.00 0.23 0.23 92 1009.3
20260502190006 69 246 1.0 7.0 0.00 0.23 0.23 92 1009.2
20260502185504 69 240 1.0 7.0 0.01 0.23 0.23 92 1009.1
20260502185007 69 263 0.0 5.0 0.01 0.23 0.23 93 1009.1
20260502184507 69 232 0.0 5.0 0.01 0.23 0.23 93 1008.9
20260502184005 69 304 0.0 3.0 0.01 0.23 0.23 93 1008.7
20260502183503 69 263 0.0 3.0 0.01 0.23 0.23 93 1008.9
20260502183109 69 262 0.0 3.0 0.01 0.23 0.23 93 1008.9
20260502182700 69 320 0.0 3.0 0.01 0.23 0.23 93 1008.9
20260502182056 69 276 0.0 3.0 0.01 0.23 0.23 93 1008.8
20260502181603 69 253 0.0 5.0 0.03 0.23 0.23 93 1008.9
20260502181055 68 252 0.0 5.0 0.04 0.23 0.23 93 1008.9
20260502180554 68 226 0.0 3.0 0.05 0.23 0.23 93 1009.1
20260502164052 71 243 0.0 3.0 0.13 0.16 0.16 93 1009.3
20260502163530 71 30 0.0 1.0 0.10 0.13 0.13 93 1009.4
20260502163036 71 15 0.0 1.0 0.09 0.12 0.12 93 1009.2
20260502162529 71 159 0.0 1.0 0.07 0.10 0.10 92 1009.3
20260502162029 71 267 0.0 1.0 0.04 0.07 0.07 92 1009.4
20260502161536 71 198 0.0 2.0 0.02 0.05 0.05 92 1009.8
20260502161035 71 158 0.0 2.0 0.01 0.04 0.04 92 1009.7
20260502160526 71 96 0.0 2.0 0.00 0.03 0.03 92 1009.8
20260502152011 70 117 0.0 1.0 0.03 0.03 0.03 92 1009.7
20260502151511 70 243 0.0 0.0 0.03 0.03 0.03 92 1010.0
20260502151009 70 243 0.0 0.0 0.03 0.03 0.03 92 1010.0
20260502150510 70 243 0.0 0.0 0.03 0.03 0.03 92 1010.0
20260502130552 69 5 0.0 0.0 0.00 0.00 0.00 89 1010.4
20260502130107 69 5 0.0 0.0 0.00 0.00 0.00 89 1010.3
20260502123543 69 108 0.0 1.0 0.00 0.00 0.00 89 1009.8
20260502123111 69 108 0.0 0.0 0.00 0.00 0.00 89 1009.8
20260502122544 69 108 0.0 0.0 0.00 0.00 0.00 89 1009.7
20260502122042 69 108 0.0 1.0 0.00 0.00 0.00 89 1009.7
20260502121546 69 108 0.0 1.0 0.00 0.00 0.00 89 1009.6
20260502121040 69 337 0.0 1.0 0.00 0.00 0.00 90 1009.6
20260502120538 69 332 0.0 1.0 0.00 0.00 0.00 90 1009.7
20260502115536 68 338 0.0 1.0 0.00 0.00 0.00 90 1009.6
20260502115034 68 75 0.0 0.0 0.00 0.00 0.00 91 1009.7
20260502114535 68 75 0.0 0.0 0.00 0.00 0.00 91 1009.6
20260502114033 68 75 0.0 0.0 0.00 0.00 0.00 91 1009.6
20260502113520 68 75 0.0 0.0 0.00 0.00 0.00 91 1009.5
20260502113020 68 58 0.0 0.0 0.00 0.00 0.00 92 1009.5
20260502112523 67 58 0.0 0.0 0.00 0.00 0.00 92 1009.7
20260502112027 67 322 0.0 0.0 0.00 0.00 0.00 92 1009.8
20260502111522 67 322 0.0 0.0 0.00 0.00 0.00 92 1009.5
20260502111018 67 322 0.0 0.0 0.00 0.00 0.00 92 1009.3
20260502110537 67 322 0.0 0.0 0.00 0.00 0.00 92 1009.2
20260502110045 67 322 0.0 0.0 0.00 0.00 0.00 92 1009.3
20260502105536 67 322 0.0 0.0 0.00 0.00 0.00 92 1009.1
20260502105036 66 326 0.0 0.0 0.00 0.00 0.00 92 1009.1
20260502104536 66 326 0.0 0.0 0.00 0.00 0.00 92 1008.9
20260502104035 66 326 0.0 0.0 0.00 0.00 0.00 92 1008.9
20260502103536 66 326 0.0 0.0 0.00 0.00 0.00 92 1008.8
20260502103034 66 326 0.0 0.0 0.00 0.00 0.00 92 1008.6
20260502102535 66 322 0.0 0.0 0.00 0.00 0.00 92 1008.6
20260502102037 66 322 0.0 0.0 0.00 0.00 0.00 92 1008.6
20260502101533 66 323 0.0 0.0 0.00 0.00 0.00 91 1008.5
20260502101032 66 322 0.0 0.0 0.00 0.00 0.00 91 1008.3
20260502100530 66 322 0.0 0.0 0.00 0.00 0.00 91 1008.2
20260502091525 67 322 0.0 1.0 0.00 0.00 0.00 91 1008.4
20260502091025 67 20 0.0 0.0 0.00 0.00 0.00 91 1007.7
20260502090520 67 20 0.0 0.0 0.00 0.00 0.00 91 1008.2
20260502071513 67 20 0.0 0.0 0.00 0.00 0.00 90 1010.5
20260502071011 67 20 0.0 0.0 0.00 0.00 0.00 90 1010.6
20260502070518 67 20 0.0 0.0 0.00 0.00 0.00 90 1010.5
20260502070014 67 20 0.0 0.0 0.00 0.00 0.00 90 1010.4
20260502065517 67 20 0.0 0.0 0.00 0.00 0.00 90 1010.2
20260502065012 67 20 0.0 0.0 0.00 0.00 0.00 90 1010.3
20260502064509 67 20 0.0 0.0 0.00 0.00 0.00 90 1010.2
20260502064009 67 20 0.0 0.0 0.00 0.00 0.00 90 1010.1
20260502063508 67 20 0.0 0.0 0.00 0.00 0.00 90 1010.1
20260502063007 67 20 0.0 0.0 0.00 0.00 0.00 89 1010.4
20260502062506 67 20 0.0 0.0 0.00 0.00 0.00 89 1010.4
20260502062006 67 20 0.0 0.0 0.00 0.00 0.00 89 1010.2
20260502061505 67 20 0.0 0.0 0.00 0.00 0.00 89 1010.4
20260502061005 67 20 0.0 0.0 0.00 0.00 0.00 89 1010.7
20260502060504 67 20 0.0 0.0 0.00 0.00 0.00 89 1010.8
20260502060005 67 20 0.0 0.0 0.00 0.00 0.00 89 1011.1
20260502055604 67 20 0.0 0.0 0.00 0.00 0.00 89 1011.0
20260502055018 67 20 0.0 0.0 0.00 0.00 0.00 89 1010.8
20260502054556 67 20 0.0 0.0 0.00 0.00 0.00 88 1010.9
20260502054054 67 20 0.0 0.0 0.00 0.00 0.00 88 1011.0
20260502053555 67 20 0.0 0.0 0.00 0.00 0.00 88 1011.1
20260502053051 67 20 0.0 0.0 0.00 0.00 0.00 88 1011.0
20260502052551 67 20 0.0 0.0 0.00 0.00 0.00 88 1011.1
20260502052059 68 20 0.0 0.0 0.00 0.00 0.00 88 1011.2
20260502051551 68 20 0.0 0.0 0.00 0.00 0.00 88 1011.3
20260502051051 68 20 0.0 0.0 0.00 0.00 0.00 87 1011.3
20260502050600 68 20 0.0 0.0 0.00 0.00 0.00 87 1011.5
20260502050045 68 20 0.0 0.0 0.00 0.00 0.00 87 1011.4
20260502045548 69 20 0.0 0.0 0.00 0.00 0.00 87 1011.3
20260502045042 69 20 0.0 0.0 0.00 0.00 0.00 87 1011.4
20260502044542 69 20 0.0 0.0 0.00 0.00 0.00 87 1011.3
20260502044044 69 20 0.0 0.0 0.00 0.00 0.00 87 1011.3
20260502043538 69 20 0.0 0.0 0.00 0.00 0.00 87 1011.3
20260502043037 69 20 0.0 0.0 0.00 0.00 0.00 86 1011.4
20260502042537 70 20 0.0 0.0 0.00 0.00 0.00 86 1011.4
20260502042037 70 20 0.0 0.0 0.00 0.00 0.00 86 1011.4
20260502041535 70 20 0.0 0.0 0.00 0.00 0.00 86 1011.6
20260502041030 70 20 0.0 0.0 0.00 0.00 0.00 85 1011.4
20260502040529 70 20 0.0 1.0 0.00 0.00 0.00 85 1011.5
20260502040029 71 20 0.0 1.0 0.00 0.00 0.00 85 1011.6
20260502035528 71 20 0.0 1.0 0.00 0.00 0.00 85 1011.5
20260502035026 71 25 0.0 1.0 0.00 0.00 0.00 85 1011.4
20260502034526 71 304 0.0 1.0 0.00 0.00 0.00 85 1011.2
20260502034026 71 304 0.0 3.0 0.00 0.00 0.00 85 1011.2
20260502033530 71 72 0.0 1.0 0.00 0.00 0.00 85 1011.4
20260502033026 71 91 0.0 2.0 0.00 0.00 0.00 85 1011.4
20260502032526 70 245 0.0 1.0 0.00 0.00 0.00 85 1011.4
20260502032024 70 207 0.0 1.0 0.00 0.00 0.00 85 1011.3
20260502031524 70 207 0.0 1.0 0.00 0.00 0.00 85 1011.3
20260502031026 71 308 0.0 2.0 0.00 0.00 0.00 85 1011.5
20260502030522 71 23 0.0 2.0 0.00 0.00 0.00 84 1010.7
20260502030030 71 293 0.0 2.0 0.00 0.00 0.00 84 1010.9
20260502025524 71 27 0.0 1.0 0.00 0.00 0.00 84 1011.4
20260502025024 71 304 0.0 3.0 0.00 0.00 0.00 84 1011.4
20260502024519 71 100 0.0 3.0 0.00 0.00 0.00 84 1011.4
20260502024018 71 335 0.0 2.0 0.00 0.00 0.00 84 1011.7
20260502023517 72 214 0.0 3.0 0.00 0.00 0.00 84 1011.7
20260502023020 72 328 0.0 3.0 0.00 0.00 0.00 84 1011.7
20260502022517 72 308 0.0 2.0 0.00 0.00 0.00 85 1012.1
20260502022018 72 356 0.0 3.0 0.00 0.00 0.00 85 1011.9
20260502021514 72 248 0.0 2.0 0.00 0.00 0.00 86 1011.3
20260502021013 73 319 0.0 2.0 0.00 0.00 0.00 86 1011.6
20260502020512 73 285 0.0 1.0 0.00 0.00 0.00 86 1011.9
20260502020014 73 268 0.0 1.0 0.00 0.00 0.00 86 1011.9
20260502015516 73 263 0.0 2.0 0.00 0.00 0.00 86 1011.7
20260502015010 73 275 0.0 2.0 0.00 0.00 0.00 86 1011.9
20260502014008 73 163 0.0 2.0 0.00 0.00 0.00 85 1011.3
20260502013507 74 167 0.0 4.0 0.00 0.00 0.00 85 1010.8
20260502013011 74 243 0.0 4.0 0.00 0.00 0.00 84 1010.8
20260502012510 74 55 0.0 3.0 0.00 0.00 0.00 83 1011.2
20260502012004 75 124 0.0 2.0 0.00 0.00 0.00 83 1011.2
20260502011505 75 263 0.0 2.0 0.00 0.00 0.00 84 1011.1
20260502011004 75 115 0.0 2.0 0.00 0.00 0.00 83 1010.9
20260502010607 75 140 0.0 2.0 0.00 0.00 0.00 82 1011.0
20260502010107 75 101 0.0 2.0 0.00 0.00 0.00 82 1010.9
20260502010005 75 307 0.0 1.0 0.00 0.00 0.00 82 1011.0
20260502005600 76 121 0.0 1.0 0.00 0.00 0.00 81 1011.2
20260502005059 76 121 0.0 2.0 0.00 0.00 0.00 81 1011.3
20260502004606 76 304 0.0 2.0 0.00 0.00 0.00 80 1011.0
20260502004505 76 304 0.0 2.0 0.00 0.00 0.00 80 1011.1
20260502004058 76 264 0.0 1.0 0.00 0.00 0.00 79 1011.0
20260502003557 76 255 0.0 1.0 0.00 0.00 0.00 80 1011.0
20260502003059 76 245 0.0 2.0 0.00 0.00 0.00 80 1011.0
20260502002557 77 323 0.0 2.0 0.00 0.00 0.00 80 1010.7
20260502002054 77 324 0.0 1.0 0.00 0.00 0.00 81 1010.6
20260502001559 77 323 0.0 2.0 0.00 0.00 0.00 80 1010.5
20260502001053 77 319 0.0 3.0 0.00 0.00 0.00 80 1010.3
20260502000554 77 278 0.0 3.0 0.00 0.00 0.00 80 1010.3
20260502000106 77 304 0.0 3.0 0.00 0.00 0.00 79 1010.2
20260501235554 78 132 0.0 2.0 0.00 0.00 0.00 78 1010.2
20260501235052 78 279 0.0 3.0 0.00 0.00 0.00 76 1010.2
20260501234548 78 269 0.0 3.0 0.00 0.00 0.00 76 1010.0
20260501234047 78 301 0.0 3.0 0.00 0.00 0.00 76 1009.9
20260501233551 79 255 0.0 3.0 0.00 0.00 0.00 76 1009.7
20260501233049 79 274 0.0 1.0 0.00 0.00 0.00 76 1009.7
20260501232546 79 153 0.0 1.0 0.00 0.00 0.00 75 1009.6
20260501232047 79 293 0.0 2.0 0.00 0.00 0.00 75 1009.6
20260501231559 80 32 0.0 2.0 0.00 0.00 0.00 74 1009.6
20260501231043 80 262 0.0 3.0 0.00 0.00 0.00 73 1009.7
20260501230542 81 353 0.0 3.0 0.00 0.00 0.00 72 1009.5
20260501230046 81 108 0.0 2.0 0.00 0.00 0.00 71 1009.4
20260501225541 82 332 0.0 3.0 0.00 0.00 0.00 69 1009.3
20260501225040 82 316 0.0 3.0 0.00 0.00 0.00 69 1009.2
20260501224546 83 71 0.0 3.0 0.00 0.00 0.00 66 1009.0
20260501224039 84 321 0.0 1.0 0.00 0.00 0.00 64 1009.0
20260501223543 84 312 0.0 1.0 0.00 0.00 0.00 62 1008.9
20260501223047 84 146 0.0 1.0 0.00 0.00 0.00 63 1008.9
20260501222537 84 146 0.0 1.0 0.00 0.00 0.00 61 1009.0
20260501222037 84 311 0.0 1.0 0.00 0.00 0.00 62 1008.6
20260501221535 84 311 0.0 2.0 0.00 0.00 0.00 62 1008.8
20260501221033 85 335 0.0 2.0 0.00 0.00 0.00 62 1008.6
20260501220533 85 338 0.0 1.0 0.00 0.00 0.00 61 1008.6
20260501220036 85 115 0.0 1.0 0.00 0.00 0.00 61 1008.7
20260501215531 85 242 0.0 1.0 0.00 0.00 0.00 61 1008.9
20260501215029 86 242 0.0 1.0 0.00 0.00 0.00 61 1009.1
20260501214530 86 242 0.0 1.0 0.00 0.00 0.00 62 1008.9
20260501214028 86 242 0.0 3.0 0.00 0.00 0.00 61 1009.1
20260501213531 87 242 0.0 3.0 0.00 0.00 0.00 59 1008.9
20260501213044 88 175 0.0 1.0 0.00 0.00 0.00 58 1009.1
20260501212527 89 317 0.0 2.0 0.00 0.00 0.00 57 1008.9
20260501212031 89 70 0.0 2.0 0.00 0.00 0.00 57 1008.9
20260501211529 89 233 0.0 2.0 0.00 0.00 0.00 59 1008.8
20260501211030 89 295 0.0 2.0 0.00 0.00 0.00 58 1008.6
20260501210525 88 141 0.0 1.0 0.00 0.00 0.00 58 1008.7
20260501210038 88 148 0.0 1.0 0.00 0.00 0.00 61 1008.6
20260501205527 89 178 0.0 1.0 0.00 0.00 0.00 57 1008.6
20260501205024 90 285 0.0 2.0 0.00 0.00 0.00 57 1008.6
20260501204526 90 290 0.0 2.0 0.00 0.00 0.00 55 1008.8
20260501204025 90 202 0.0 1.0 0.00 0.00 0.00 55 1008.8
20260501203524 90 281 0.0 2.0 0.00 0.00 0.00 57 1008.7
20260501203018 89 236 0.0 3.0 0.00 0.00 0.00 57 1008.7
20260501202517 90 270 0.0 3.0 0.00 0.00 0.00 56 1009.0
20260501202019 90 149 0.0 4.0 0.00 0.00 0.00 56 1009.0
20260501201519 90 340 0.0 3.0 0.00 0.00 0.00 56 1009.0
20260501201022 90 233 0.0 4.0 0.00 0.00 0.00 55 1009.2
20260501200612 90 304 1.0 4.0 0.00 0.00 0.00 55 1009.4
20260501200017 90 303 0.0 5.0 0.00 0.00 0.00 56 1009.3